{"data":{"norad_id":62517,"intl_designator":"2025-004G","name":"STARLINK-11512 [DTC]","alt_names":[],"object_type":"PAYLOAD","status":"ACTIVE","operator":null,"country":"US","launch_date":"2025-01-08","launch_site_code":"AFETR","launch_vehicle":null,"mission":null,"orbit_class":"UNKNOWN","rcs_meters":null,"size_class":null,"mass_kg":null,"dimensions":null,"purposes":["comms"],"wikipedia_slug":null,"has_3d_model":false,"image_url":null,"decayed_at":null,"tle_current":{"epoch":"2026-05-24T22:19:09.098688Z","epoch_age_seconds":84391,"freshness":"FRESH","line1":"1 62517U 25004G   26144.92996642  .00132901  00000+0  10222-2 0  9990","line2":"2 62517  43.0025 330.7765 0001786 293.6848  66.3832 15.70851879 79207","mean_motion":15.70851879,"eccentricity":0.0001786,"inclination_deg":43.0025,"raan_deg":330.7765,"arg_perigee_deg":293.6848,"mean_anomaly_deg":66.3832,"bstar":0.0010222,"rev_number":7920,"period_min":91.670005253245,"perigee_km":355.258310155,"apogee_km":357.66390859967,"semimajor_km":6734.5981093773,"source":"CELESTRAK","updated_at":"2026-05-25T13:38:19.702901Z"}}}